Temp
5 5 5 5 4 4 4 4 4 3 3 3 3 2 2 2 1 1 1 1 1 1 0 0 0 0 0 0 0 0 0 0 0 -0 -0 -0 -0 -0 -0 -0 -0 -0 -0 -0 -0 -0 -0 -0 -0 -1 -1 -1 -1 -0 -0 -0 -0 -0 -0 -0 0 0 0 0 1 1 1 1 1
5 5 5 5 5 4 4 4 4 4 3 3 3 3 2 2 1 1 1 1 1 1 0 0 0 0 0 0 0 -0 -0 -0 -0 -0 -0 -0 -0 -0 -0 -0 -0 -0 -0 -0 -0 -0 -1 -1 -1 -1 -1 -1 -1 -1 -0 -0 -0 -0 -0 -0 -0 0 0 0 0 1 1 1 1
5 5 5 5 5 4 4 4 4 4 4 4 3 3 3 2 2 1 1 1 1 1 0 0 0 0 0 0 -0 -0 -0 -0 -0 -0 -0 -0 -0 -0 -0 -0 -0 -0 -0 -1 -1 -1 -1 -1 -1 -1 -1 -1 -1 -1 -1 -0 -0 -0 -0 -0 -0 -0 0 0 0 0 1 1 1
5 5 5 5 5 5 4 4 4 4 4 4 3 3 3 2 2 1 1 1 1 0 0 0 0 0 -0 -0 -0 -0 -0 -0 -0 -1 -1 -1 -1 -1 -1 -1 -1 -1 -1 -1 -1 -1 -1 -1 -1 -1 -1 -1 -1 -1 -1 -1 -1 -1 -0 -0 -0 -0 -0 -0 0 0 0 0 1
5 4 4 4 4 4 4 4 4 4 4 3 3 3 3 2 2 1 1 1 1 1 0 0 0 -0 -0 -0 -0 -0 -0 -0 -1 -1 -1 -1 -1 -1 -1 -1 -1 -1 -1 -1 -1 -1 -1 -1 -1 -1 -1 -1 -1 -1 -1 -1 -1 -1 -0 -0 -0 -0 -0 -0 0 0 0 0 0
4 4 4 4 4 4 4 4 4 4 4 3 3 3 2 2 2 1 1 1 1 1 0 0 -0 -0 -0 -0 -0 -0 -0 -0 -1 -1 -1 -1 -1 -1 -1 -1 -1 -1 -1 -1 -1 -1 -1 -1 -1 -1 -1 -1 -1 -1 -1 -1 -1 -0 -0 -0 -0 -0 -0 -0 -0 0 0 0 0
4 4 4 4 4 4 4 4 4 4 3 3 3 3 2 2 2 1 1 1 1 1 0 -0 -0 -0 -0 -0 -0 -0 -1 -1 -1 -1 -1 -1 -1 -1 -1 -1 -1 -1 -1 -1 -1 -1 -1 -1 -1 -1 -1 -1 -1 -1 -1 -0 -0 -0 -0 -0 -0 -0 -0 -0 -0 -0 0 0 0
3 3 3 3 3 4 4 4 3 3 3 3 3 2 2 2 2 1 1 1 1 0 0 -0 -0 -0 -0 -1 -1 -1 -1 -1 -1 -1 -1 -1 -1 -1 -1 -1 -1 -1 -1 -1 -1 -1 -1 -1 -1 -1 -1 -1 -1 -1 -1 -1 -1 -1 -1 -1 -1 -1 -0 -0 -0 -0 -0 -0 0
3 3 3 3 3 3 3 3 3 3 3 3 2 2 2 2 1 1 1 1 0 0 -0 -0 -0 -0 -1 -1 -1 -1 -1 -1 -1 -1 -1 -1 -1 -1 -1 -1 -1 -1 -1 -1 -1 -2 -2 -2 -2 -1 -1 -1 -1 -1 -1 -1 -1 -1 -1 -1 -1 -1 -1 -1 -0 -0 -0 -0 -0
3 3 3 3 3 3 3 3 3 3 2 2 2 2 2 1 1 1 1 0 0 -0 -0 -0 -0 -1 -1 -1 -1 -1 -1 -1 -1 -1 -1 -1 -1 -1 -1 -1 -2 -2 -2 -2 -2 -2 -2 -2 -2 -1 -1 -1 -1 -1 -1 -1 -1 -1 -1 -1 -1 -1 -1 -1 -1 -1 -0 -0 -0
3 3 3 3 3 3 3 3 3 2 2 2 2 2 2 1 1 1 0 0 -0 -0 -0 -0 -1 -1 -1 -1 -1 -1 -1 -1 -1 -1 -1 -1 -2 -2 -2 -2 -2 -2 -2 -2 -2 -2 -2 -2 -2 -1 -1 -1 -1 -1 -1 -1 -1 -1 -1 -1 -1 -1 -1 -1 -1 -1 -1 -1 -0
2 2 3 3 3 3 3 3 2 2 2 2 2 1 1 1 1 0 0 -0 -0 -0 -0 -1 -1 -1 -1 -1 -1 -1 -1 -1 -2 -2 -2 -2 -2 -2 -2 -2 -2 -2 -2 -2 -2 -2 -2 -2 -2 -1 -1 -1 -1 -1 -1 -1 -1 -1 -1 -1 -1 -1 -1 -1 -1 -1 -1 -1 -0
2 2 2 2 2 2 2 2 2 2 2 1 1 1 1 1 0 0 -0 -0 -1 -1 -1 -1 -1 -1 -1 -1 -1 -2 -2 -2 -2 -2 -2 -2 -2 -2 -2 -2 -2 -2 -2 -2 -2 -2 -2 -2 -2 -2 -1 -1 -1 -1 -1 -1 -1 -1 -1 -1 -1 -1 -1 -1 -1 -1 -1 -1 -1
2 2 2 2 2 2 2 2 2 1 1 1 1 1 0 0 -0 -0 -1 -1 -1 -1 -1 -1 -1 -1 -2 -2 -2 -2 -2 -2 -2 -2 -2 -2 -2 -2 -2 -2 -2 -2 -2 -2 -2 -2 -2 -2 -2 -2 -2 -2 -2 -2 -2 -1 -1 -1 -2 -1 -1 -1 -1 -1 -1 -1 -1 -1 -1
2 2 2 2 2 2 2 2 1 1 1 0 0 0 -0 -0 -0 -1 -1 -1 -1 -1 -1 -2 -2 -2 -2 -2 -2 -2 -2 -2 -2 -2 -2 -2 -2 -2 -2 -2 -2 -2 -2 -2 -2 -2 -2 -2 -2 -2 -2 -2 -2 -2 -2 -2 -2 -2 -2 -2 -2 -2 -2 -2 -2 -2 -1 -1 -1
2 2 2 2 2 2 2 1 1 0 0 0 -0 -0 -0 -1 -1 -1 -1 -1 -1 -2 -2 -2 -2 -2 -2 -2 -2 -2 -2 -2 -2 -2 -2 -2 -2 -2 -2 -2 -2 -2 -2 -2 -2 -2 -2 -2 -2 -2 -2 -2 -2 -2 -2 -2 -2 -2 -2 -2 -2 -2 -2 -2 -2 -2 -2 -1 -1
2 2 2 2 2 2 1 1 0 0 -0 -0 -0 -0 -1 -1 -1 -1 -1 -2 -2 -2 -2 -2 -2 -2 -2 -2 -2 -2 -2 -2 -2 -2 -2 -2 -2 -2 -2 -2 -2 -2 -2 -2 -2 -2 -2 -2 -2 -2 -2 -2 -2 -2 -2 -2 -2 -2 -2 -2 -2 -2 -2 -2 -2 -2 -2 -2 -2
2 2 2 2 2 1 1 0 0 -0 -0 -0 -1 -1 -1 -1 -1 -1 -2 -2 -2 -2 -2 -2 -2 -2 -2 -2 -2 -2 -2 -2 -2 -2 -2 -2 -2 -2 -2 -2 -2 -2 -2 -2 -2 -2 -2 -2 -2 -2 -2 -2 -2 -2 -2 -2 -2 -2 -2 -2 -2 -2 -2 -2 -2 -2 -2 -2 -2
2 2 2 1 1 1 0 0 -0 -0 -1 -1 -1 -1 -1 -1 -2 -2 -2 -2 -2 -2 -2 -2 -2 -2 -2 -2 -2 -2 -2 -2 -2 -2 -2 -2 -2 -2 -3 -3 -3 -3 -3 -3 -3 -3 -3 -2 -2 -2 -2 -2 -2 -2 -2 -2 -2 -2 -2 -2 -2 -2 -2 -2 -2 -2 -2 -2 -2
2 2 1 1 0 0 -0 -0 -1 -1 -1 -1 -1 -1 -2 -2 -2 -2 -2 -2 -2 -2 -2 -2 -2 -2 -2 -3 -3 -3 -3 -3 -3 -2 -2 -3 -3 -3 -3 -3 -3 -3 -3 -3 -3 -3 -3 -2 -2 -2 -2 -2 -2 -2 -2 -2 -2 -2 -2 -2 -3 -3 -3 -3 -3 -3 -2 -2 -2
1 1 1 0 -0 -0 -1 -1 -1 -1 -1 -1 -2 -2 -2 -2 -2 -2 -2 -2 -2 -2 -2 -3 -3 -3 -3 -3 -3 -3 -3 -3 -3 -3 -3 -3 -3 -3 -3 -3 -3 -3 -3 -3 -3 -3 -3 -2 -2 -2 -2 -2 -2 -2 -2 -2 -2 -2 -2 -3 -3 -3 -3 -3 -3 -3 -2 -2 -2
1 0 0 -0 -1 -1 -1 -1 -1 -1 -2 -2 -2 -2 -2 -2 -2 -2 -2 -2 -2 -2 -3 -3 -3 -3 -3 -3 -3 -3 -3 -3 -3 -3 -3 -3 -3 -3 -3 -3 -3 -3 -3 -3 -3 -3 -3 -2 -2 -2 -2 -2 -2 -2 -2 -2 -3 -3 -3 -3 -3 -3 -3 -3 -3 -2 -2 -2 -2
0 -0 -0 -1 -1 -1 -1 -1 -2 -2 -2 -2 -2 -2 -2 -2 -2 -2 -2 -2 -3 -3 -3 -3 -3 -3 -3 -3 -3 -3 -3 -3 -3 -3 -3 -3 -3 -3 -3 -3 -3 -3 -3 -3 -3 -3 -3 -3 -2 -2 -2 -2 -2 -2 -2 -2 -2 -3 -3 -3 -2 -2 -2 -2 -2 -2 -2 -2 -2
-0 -0 -1 -1 -1 -1 -2 -2 -2 -2 -2 -2 -2 -2 -2 -2 -2 -3 -3 -3 -3 -3 -3 -3 -3 -3 -3 -3 -3 -3 -3 -3 -3 -3 -3 -3 -3 -3 -3 -3 -3 -3 -3 -3 -3 -3 -3 -3 -2 -2 -2 -2 -2 -2 -2 -2 -2 -2 -2 -2 -2 -2 -2 -2 -2 -2 -2 -2 -2
-0 -1 -1 -1 -1 -2 -2 -2 -2 -2 -2 -2 -2 -3 -3 -3 -3 -3 -3 -3 -3 -3 -3 -3 -3 -3 -3 -3 -3 -3 -3 -3 -3 -3 -3 -3 -3 -3 -3 -3 -3 -3 -3 -3 -3 -3 -2 -2 -2 -2 -2 -2 -2 -2 -2 -2 -2 -2 -2 -2 -2 -2 -2 -2 -2 -2 -2 -2 -2
-1 -1 -1 -1 -2 -2 -2 -2 -2 -2 -2 -3 -3 -3 -3 -3 -3 -3 -3 -3 -3 -3 -3 -3 -3 -3 -3 -3 -3 -3 -3 -3 -3 -3 -3 -3 -3 -3 -3 -3 -3 -3 -3 -3 -3 -3 -2 -2 -2 -2 -2 -2 -2 -2 -2 -2 -2 -2 -2 -2 -2 -2 -2 -2 -2 -2 -2 -2 -2
-1 -1 -2 -2 -2 -2 -2 -2 -2 -3 -3 -3 -3 -3 -3 -3 -3 -3 -3 -3 -3 -3 -3 -3 -3 -3 -3 -3 -3 -3 -3 -3 -3 -3 -4 -4 -4 -4 -4 -4 -3 -3 -3 -3 -3 -3 -2 -2 -2 -2 -2 -2 -2 -2 -2 -2 -2 -2 -2 -2 -2 -2 -2 -2 -2 -2 -2 -2 -2
-1 -2 -2 -2 -2 -2 -2 -3 -3 -3 -3 -3 -3 -3 -3 -3 -3 -3 -3 -3 -3 -3 -3 -3 -3 -3 -3 -3 -3 -3 -4 -4 -4 -4 -4 -4 -4 -4 -4 -3 -3 -3 -3 -3 -3 -3 -3 -2 -2 -2 -2 -2 -2 -2 -2 -2 -2 -2 -2 -2 -2 -2 -2 -2 -2 -2 -2 -2 -2
-2 -2 -2 -2 -3 -3 -3 -3 -3 -3 -3 -3 -3 -3 -3 -3 -3 -3 -3 -3 -3 -3 -3 -3 -3 -4 -4 -4 -4 -4 -4 -4 -4 -4 -4 -4 -4 -4 -4 -3 -3 -3 -3 -3 -3 -3 -3 -2 -2 -2 -2 -2 -2 -2 -2 -3 -3 -2 -2 -2 -2 -2 -2 -2 -2 -2 -2 -2 -2
-2 -2 -2 -3 -3 -3 -3 -3 -3 -3 -3 -3 -3 -3 -3 -3 -3 -3 -3 -4 -4 -4 -4 -4 -4 -4 -4 -4 -4 -4 -4 -4 -4 -4 -4 -4 -4 -4 -4 -3 -3 -3 -3 -3 -3 -3 -3 -3 -3 -2 -2 -2 -2 -2 -3 -3 -3 -3 -3 -2 -2 -2 -2 -2 -2 -2 -2 -2 -2
-2 -3 -3 -3 -3 -3 -3 -3 -3 -3 -3 -3 -3 -3 -4 -4 -4 -4 -4 -4 -4 -4 -4 -4 -4 -4 -4 -4 -4 -5 -4 -4 -4 -4 -4 -4 -4 -4 -4 -4 -4 -4 -4 -3 -3 -3 -3 -3 -3 -3 -3 -3 -3 -3 -3 -3 -3 -3 -3 -2 -2 -2 -2 -2 -2 -2 -2 -2 -2
-3 -3 -3 -3 -3 -3 -3 -3 -3 -3 -3 -4 -4 -4 -4 -4 -4 -4 -4 -4 -4 -4 -4 -4 -5 -5 -5 -5 -5 -5 -4 -4 -4 -4 -4 -4 -4 -4 -4 -4 -4 -4 -4 -4 -3 -3 -3 -3 -3 -3 -3 -3 -3 -3 -3 -3 -3 -2 -2 -2 -2 -2 -2 -2 -2 -2 -2 -2 -2
-3 -3 -3 -3 -3 -4 -4 -4 -4 -4 -4 -4 -4 -4 -4 -4 -4 -4 -4 -4 -4 -5 -5 -5 -5 -5 -5 -5 -5 -4 -4 -4 -4 -4 -4 -4 -4 -4 -4 -4 -4 -4 -4 -4 -4 -3 -3 -3 -3 -3 -3 -3 -3 -3 -3 -3 -3 -2 -2 -2 -2 -2 -2 -2 -2 -2 -2 -2 -2
-3 -3 -4 -4 -4 -4 -4 -4 -4 -4 -4 -4 -4 -4 -4 -4 -5 -5 -5 -5 -5 -5 -5 -5 -5 -5 -5 -5 -4 -4 -4 -4 -4 -4 -4 -4 -4 -4 -4 -4 -4 -4 -4 -4 -4 -3 -3 -3 -3 -3 -3 -3 -3 -3 -3 -3 -3 -3 -2 -2 -2 -2 -2 -2 -2 -2 -2 -2 -2
-4 -4 -4 -4 -4 -4 -4 -4 -4 -4 -4 -4 -4 -5 -5 -5 -5 -5 -5 -5 -5 -5 -5 -5 -5 -5 -5 -4 -4 -4 -4 -4 -4 -4 -4 -4 -4 -4 -4 -4 -4 -4 -4 -4 -4 -4 -3 -3 -3 -3 -3 -3 -3 -3 -3 -3 -3 -3 -3 -2 -2 -2 -2 -2 -2 -2 -2 -2 -2
-4 -4 -4 -4 -4 -4 -4 -5 -5 -5 -5 -5 -5 -5 -5 -5 -5 -5 -5 -5 -5 -5 -5 -5 -5 -5 -4 -4 -4 -4 -4 -4 -4 -4 -4 -4 -4 -5 -4 -4 -4 -4 -4 -4 -4 -4 -3 -3 -3 -3 -3 -3 -3 -3 -3 -3 -3 -3 -3 -3 -2 -2 -2 -2 -2 -2 -2 -2 -2
-4 -4 -5 -5 -5 -5 -5 -5 -5 -5 -5 -5 -5 -5 -5 -5 -5 -5 -5 -5 -5 -5 -5 -5 -5 -5 -4 -4 -4 -4 -4 -5 -5 -5 -5 -5 -5 -5 -5 -5 -5 -4 -4 -4 -4 -4 -3 -3 -3 -3 -3 -3 -3 -3 -3 -3 -3 -3 -3 -2 -2 -2 -2 -2 -2 -2 -2 -2 -2
-5 -5 -5 -5 -5 -5 -5 -5 -5 -5 -5 -5 -5 -5 -5 -6 -6 -6 -5 -5 -5 -5 -5 -5 -5 -5 -5 -5 -5 -5 -5 -5 -5 -5 -5 -5 -5 -5 -5 -5 -5 -5 -4 -4 -4 -4 -4 -3 -3 -3 -3 -3 -3 -3 -3 -3 -3 -3 -3 -2 -2 -2 -2 -2 -2 -2 -2 -2 -2
-5 -5 -5 -5 -5 -5 -5 -5 -6 -6 -6 -6 -6 -6 -6 -6 -6 -6 -5 -5 -5 -5 -5 -5 -5 -5 -5 -5 -5 -5 -5 -5 -5 -5 -5 -5 -5 -5 -5 -5 -5 -4 -4 -4 -4 -4 -4 -3 -3 -3 -3 -3 -3 -3 -3 -3 -3 -3 -2 -2 -2 -2 -2 -2 -2 -2 -2 -2 -1
-5 -5 -5 -5 -6 -6 -6 -6 -6 -6 -6 -6 -6 -6 -6 -6 -5 -5 -5 -5 -5 -5 -5 -5 -5 -5 -5 -5 -5 -5 -5 -5 -5 -5 -5 -5 -5 -5 -5 -5 -5 -5 -4 -4 -4 -4 -4 -3 -3 -3 -3 -3 -3 -3 -3 -3 -2 -2 -2 -2 -2 -2 -2 -2 -2 -1 -1 -1 -1
-5 -6 -6 -6 -6 -6 -6 -6 -6 -6 -6 -6 -6 -6 -6 -5 -5 -5 -5 -5 -5 -5 -5 -5 -5 -5 -5 -5 -5 -5 -5 -5 -5 -5 -5 -5 -5 -5 -5 -5 -5 -5 -5 -4 -4 -4 -4 -4 -3 -3 -3 -3 -3 -2 -2 -2 -2 -2 -2 -2 -2 -1 -1 -1 -1 -1 -1 -1 -1
Height
819 819 818 817 816 816 815 814 813 812 811 810 809 808 807 807 806 805 805 804 804 803 802 801 800 800 799 798 798 797 796 795 794 794 793 792 791 790 789 788 787 786 785 784 783 782 781 780 779 778 777 776 775 773 772 771 770 769 768 767 766 765 764 763 762 761 760 760 759
818 817 816 816 815 814 813 812 811 810 809 808 807 806 806 805 805 804 803 802 802 801 800 799 798 798 797 796 795 795 794 793 792 791 790 790 789 788 787 786 785 784 783 782 781 780 779 778 777 776 775 774 772 771 770 769 768 767 766 765 764 763 762 760 759 758 758 757 756
816 816 815 814 813 812 811 810 809 808 807 806 805 805 804 804 803 802 801 800 800 799 799 798 796 796 795 794 793 793 792 791 790 789 788 787 786 785 785 784 783 781 780 780 779 777 776 776 775 774 773 771 770 769 767 766 766 765 764 762 761 761 760 758 757 756 755 754 753
815 814 814 813 811 810 809 808 807 806 805 805 804 803 803 802 801 800 800 799 798 797 797 796 795 794 793 792 791 790 790 789 788 787 786 785 784 783 782 781 780 779 778 777 776 775 774 774 773 772 770 769 768 766 765 764 763 762 761 760 759 758 757 755 755 754 753 752 751
814 813 812 811 810 809 808 806 805 804 804 803 802 801 801 800 800 799 798 797 796 796 795 794 793 792 791 790 789 788 788 787 786 785 784 783 782 781 780 779 778 777 776 775 774 773 772 771 770 769 768 766 765 764 762 762 761 760 759 758 757 756 755 753 752 751 750 749 748
812 811 810 810 809 807 806 805 804 803 802 801 801 800 799 799 798 797 796 795 795 794 793 792 791 790 789 788 787 786 785 785 784 783 782 780 779 778 777 776 775 775 773 772 771 770 770 769 768 766 765 764 763 761 760 760 759 757 756 755 754 754 752 751 750 749 748 747 745
810 810 809 808 807 806 805 804 802 801 801 800 799 798 798 797 796 796 795 794 793 792 791 790 789 788 787 786 785 784 783 782 781 780 780 778 777 776 775 774 773 772 771 770 769 768 767 767 766 764 763 762 760 759 758 758 757 755 754 753 752 751 750 749 748 747 746 744 743
809 808 807 806 805 804 803 802 801 800 799 798 798 797 796 795 795 794 793 792 791 790 789 788 787 786 785 785 783 782 781 780 779 778 777 776 775 774 773 772 770 770 769 768 767 766 765 765 764 762 760 759 758 756 755 755 754 753 751 750 749 748 747 746 745 744 743 742 740
808 807 806 805 804 803 802 800 800 799 798 797 796 795 795 794 793 792 791 790 789 788 787 786 785 785 784 783 781 780 779 778 777 775 775 774 773 771 770 769 768 767 766 765 765 764 762 762 761 760 758 757 755 754 753 753 752 750 749 748 746 745 744 743 742 741 740 739 738
806 805 804 803 802 801 800 799 798 797 796 795 795 794 793 792 791 790 790 789 787 786 785 785 784 783 781 780 779 778 777 776 775 774 772 771 770 769 768 767 766 764 763 762 762 761 760 759 758 756 755 754 753 752 750 750 749 748 746 745 744 742 741 740 739 738 737 735 735
805 804 803 802 800 800 798 797 796 795 795 794 793 792 791 790 790 789 788 787 786 785 783 783 782 781 780 778 777 776 775 774 773 771 770 769 768 767 765 764 763 762 760 759 759 758 757 756 755 753 752 751 750 749 748 747 746 745 743 742 741 740 738 736 736 735 734 732 731
803 802 801 800 799 798 796 795 795 794 793 792 791 790 790 789 788 787 786 785 784 783 781 781 780 779 777 776 775 774 773 772 770 770 768 767 765 764 763 761 760 759 758 757 756 756 755 753 752 750 749 748 748 747 745 744 743 742 740 739 738 737 735 733 733 732 731 730 728
801 800 799 798 797 796 795 794 793 792 791 790 790 789 788 787 786 785 784 783 782 781 780 779 778 777 775 774 773 772 771 770 768 767 766 764 763 761 760 759 758 756 755 754 754 753 752 750 749 748 746 745 744 744 743 742 740 739 737 736 735 734 732 730 730 729 728 726 725
800 799 798 796 795 794 793 792 792 791 790 789 788 787 786 785 784 784 783 781 780 779 778 776 775 775 774 772 771 770 769 767 766 765 763 761 760 759 757 756 755 754 753 751 751 750 749 747 746 745 744 742 741 740 739 739 737 736 735 733 732 730 729 727 726 725 725 723 722
798 797 796 795 793 793 792 791 790 790 789 787 786 785 785 784 783 782 781 780 778 777 776 775 773 772 771 770 769 768 766 765 764 762 760 759 757 756 755 753 752 751 750 749 748 747 746 745 743 742 740 739 738 737 736 735 734 733 731 730 729 727 725 724 723 722 721 720 718
796 795 794 793 792 791 791 790 789 788 787 786 785 784 783 782 781 780 779 778 776 775 774 773 771 770 768 768 767 766 764 762 761 760 758 756 755 753 752 751 749 748 747 746 745 744 742 741 740 739 738 736 735 734 732 731 730 729 728 726 725 724 722 721 720 719 718 716 715
794 793 792 791 790 790 789 789 788 787 785 784 783 782 781 780 779 778 777 776 775 773 771 770 769 768 766 765 764 763 762 760 759 757 756 754 752 750 749 748 746 745 744 743 742 740 739 738 737 736 735 733 732 730 729 728 726 725 724 723 722 720 719 718 717 716 715 713 712
792 791 790 790 789 789 788 787 786 785 784 783 781 780 779 778 777 776 775 774 773 771 769 767 766 765 764 762 761 760 760 758 756 754 753 751 750 748 746 745 744 742 741 740 739 737 735 734 733 732 731 730 728 727 725 724 723 721 720 719 718 717 715 715 713 712 711 710 708
790 790 789 789 788 787 786 785 784 783 782 781 780 778 777 776 775 774 772 771 770 769 767 765 764 763 762 760 759 758 756 755 753 751 750 748 747 745 743 742 740 739 738 737 735 734 732 731 730 729 728 726 725 723 722 721 719 718 717 715 714 713 712 711 710 709 708 707 705
789 788 788 787 786 785 785 784 782 781 780 779 778 776 775 774 773 772 770 769 768 767 765 764 762 760 759 758 756 755 754 752 751 749 747 745 744 742 741 739 737 736 735 734 732 731 729 728 727 726 725 723 721 720 718 717 716 714 713 712 710 709 708 707 706 705 704 703 702
788 787 786 785 785 784 783 781 780 779 778 777 775 774 773 772 771 770 768 766 765 764 763 761 760 758 757 755 754 752 750 750 748 746 744 742 741 739 738 736 735 733 731 730 729 728 726 725 724 722 721 720 718 716 715 714 712 710 709 708 706 705 704 703 702 701 700 699 697
786 785 785 784 783 782 781 780 779 777 776 775 774 772 771 770 768 767 766 764 763 762 760 759 758 756 755 753 751 750 748 746 745 743 741 740 738 736 735 734 732 730 728 727 726 725 723 722 720 719 718 716 714 713 711 710 708 706 705 703 702 701 700 699 697 696 695 694 693
785 784 783 782 781 780 779 778 777 775 774 773 771 770 769 768 766 765 763 762 761 759 758 756 755 754 752 750 749 747 745 743 741 740 739 737 735 733 731 730 729 727 725 724 723 721 720 718 717 715 714 712 710 709 707 706 704 703 701 699 697 696 695 694 693 692 691 690 689
783 782 781 780 779 778 777 776 775 773 772 771 770 768 767 765 764 762 761 760 758 757 755 754 753 751 750 748 746 745 743 741 738 736 735 734 732 731 729 727 726 725 723 721 720 719 717 716 714 712 710 709 707 705 703 702 700 698 696 695 693 691 690 689 688 688 687 686 685
781 780 779 778 777 776 775 774 773 771 770 769 767 766 765 763 762 760 759 757 755 754 753 751 750 748 747 745 744 742 740 738 736 734 732 730 729 728 726 725 723 721 720 718 717 716 715 713 711 709 707 705 703 701 699 697 695 694 692 690 689 687 686 685 684 684 683 682 681
779 778 777 776 775 774 773 772 771 770 768 767 765 764 762 761 760 758 756 755 753 752 751 749 747 746 744 743 740 739 737 736 734 732 730 728 726 725 723 722 720 718 717 715 714 712 711 710 708 706 705 702 700 698 695 693 691 690 688 687 685 684 683 681 680 680 679 678 677
777 776 775 775 774 772 771 770 769 768 766 765 763 762 760 759 757 756 754 753 751 750 748 747 745 744 742 740 738 736 734 733 731 730 728 726 724 722 720 719 717 715 714 712 710 709 707 706 705 703 701 699 697 695 692 690 688 686 685 684 682 681 680 679 677 676 675 673 672
776 775 774 773 772 770 769 768 767 765 764 763 761 760 758 756 755 754 752 750 749 747 746 744 743 741 740 737 735 733 732 730 728 727 725 723 721 719 717 715 714 712 710 709 707 705 704 702 701 699 698 696 694 691 689 687 685 684 682 681 680 678 677 675 674 672 670 668 667
775 773 772 771 770 769 767 766 765 764 762 760 759 757 756 755 753 751 750 748 747 745 744 742 740 738 737 735 733 731 729 727 726 724 722 720 718 716 714 712 710 708 707 705 704 702 700 699 697 696 694 693 691 689 687 685 683 681 680 678 676 675 673 671 669 667 665 664 663
773 772 771 770 768 767 765 764 763 761 760 759 757 755 754 752 750 749 748 746 744 743 741 740 738 736 734 732 730 728 726 725 723 721 720 717 715 713 711 709 707 705 704 702 701 699 697 695 694 692 691 690 689 687 685 682 680 678 676 674 672 670 669 667 665 663 661 660 659
772 771 770 768 767 765 764 762 761 759 758 756 755 753 752 750 749 747 745 744 742 740 739 737 735 733 731 729 728 726 724 722 720 718 716 714 712 709 707 705 704 702 700 700 698 696 694 692 691 689 688 686 685 683 681 678 676 674 672 670 668 666 665 663 661 660 658 657 656
770 770 768 767 765 763 762 760 759 757 755 754 753 751 750 748 746 745 743 742 740 738 735 734 732 730 728 726 725 723 721 719 717 715 713 711 709 706 704 702 701 699 698 696 695 693 691 689 687 685 684 683 681 679 677 675 672 670 668 666 664 662 661 660 658 656 655 654 653
769 768 767 765 763 761 760 758 757 755 754 752 750 749 747 745 743 742 741 740 738 736 734 731 730 728 725 724 722 720 718 716 714 712 710 708 706 704 702 700 698 696 695 693 691 690 687 685 684 682 680 678 677 675 673 670 669 666 664 662 660 659 657 656 655 653 651 650 649
768 766 765 763 761 759 757 756 755 753 751 750 748 747 745 744 741 740 738 736 735 734 731 729 728 725 724 722 720 717 715 713 711 709 707 705 704 701 699 697 695 693 692 690 688 686 684 682 680 678 676 675 673 671 669 666 665 662 660 658 656 655 653 652 650 649 647 646 645
766 765 763 761 759 757 755 754 752 751 750 748 746 744 743 741 740 738 736 734 732 730 728 726 725 723 721 719 717 715 713 710 709 707 705 703 701 699 696 693 691 690 689 687 685 682 680 679 676 675 673 671 669 667 665 663 660 658 656 654 652 650 649 647 646 644 643 641 640
765 763 761 759 757 755 754 752 751 749 748 746 744 742 740 739 737 735 734 732 730 728 725 723 722 720 718 716 715 713 711 709 706 704 702 700 698 696 693 690 688 686 685 683 681 679 677 675 673 671 669 668 665 663 661 659 657 654 652 650 648 646 644 643 641 640 638 637 635
763 761 759 757 755 754 752 751 749 747 745 744 742 740 739 736 734 733 731 730 728 725 723 721 719 717 716 714 712 710 708 706 704 702 699 697 695 693 690 687 685 683 681 680 678 676 674 672 670 668 666 664 662 660 658 655 653 650 648 646 644 642 640 639 637 635 634 632 631
760 759 758 756 754 752 750 749 748 746 744 742 740 739 737 735 733 730 729 728 726 723 720 718 717 715 713 711 709 707 705 704 702 700 697 695 693 691 688 685 681 679 678 676 675 672 670 668 666 665 663 661 659 657 654 652 650 647 645 642 640 637 635 634 632 630 629 627 626
759 757 756 755 752 751 749 747 746 744 742 740 738 736 735 733 731 729 727 726 724 722 719 716 715 713 711 709 707 704 702 700 699 697 695 692 690 688 686 683 679 676 675 673 671 670 667 665 663 661 660 658 656 653 651 649 646 643 641 639 636 633 631 630 628 626 624 622 621
757 755 754 753 751 750 747 746 744 742 741 739 736 734 732 731 729 727 725 724 722 720 718 715 713 710 709 707 705 702 699 697 695 695 693 690 688 685 683 681 677 674 672 670 668 666 664 662 660 658 656 654 652 650 648 645 642 640 637 635 633 630 627 625 623 621 619 617 615
755 754 752 751 750 748 746 744 742 740 739 737 735 733 731 729 727 725 723 722 720 718 716 714 711 708 706 705 702 700 696 694 692 691 690 688 685 683 680 678 675 672 669 667 665 663 661 659 657 655 653 651 649 647 645 642 639 636 634 631 629 627 624 621 619 617 615 613 610
Wind_Speed
12 12 12 13 13 14 15 15 15 16 16 17 18 19 20 20 21 21 21 21 21 22 22 23 23 24 25 25 26 26 27 27 27 27 27 27 27 28 28 29 29 29 29 30 30 30 30 29 28 27 25 23 23 23 23 23 23 23 24 24 24 25 25 26 27 27 28 28 28
12 12 13 13 14 14 15 16 17 17 17 18 19 20 21 21 21 22 22 22 22 23 23 24 24 25 26 26 26 26 27 27 27 27 27 28 28 28 29 29 29 29 29 30 30 30 29 29 28 26 25 23 23 23 24 24 24 24 25 25 25 25 25 26 26 27 27 28 28
12 13 14 14 15 15 16 17 18 19 19 20 20 21 21 22 22 22 23 23 23 23 24 24 25 26 26 27 27 27 26 27 27 28 28 29 29 29 29 29 29 30 30 30 30 30 30 29 28 26 24 24 23 24 24 24 24 24 25 25 24 24 24 25 25 26 26 26 26
13 13 14 15 15 16 17 18 19 20 20 21 22 22 22 23 23 23 23 24 24 24 24 25 26 26 27 27 27 27 27 27 27 28 29 29 29 29 29 29 30 30 30 30 30 30 30 30 28 26 24 24 24 25 24 24 23 23 24 24 24 24 24 24 25 25 25 25 26
13 14 14 15 16 17 18 19 20 20 21 21 22 23 23 23 23 23 24 24 25 25 25 26 26 27 27 27 27 28 28 28 28 29 29 29 30 30 30 30 30 30 30 31 31 31 30 30 28 26 24 24 24 24 24 24 24 24 24 24 24 24 24 25 25 24 25 25 25
14 14 15 16 16 17 18 19 20 21 21 22 22 23 23 23 23 24 24 25 25 26 26 26 26 26 27 27 28 28 29 29 29 29 30 30 30 31 31 30 30 31 31 31 31 31 30 29 27 26 25 24 24 25 25 24 25 25 25 25 24 24 24 25 25 24 25 26 27
14 15 16 16 17 18 19 20 20 21 21 22 23 23 24 24 24 24 25 25 26 26 26 26 26 26 27 28 29 30 30 30 31 30 30 31 31 31 31 31 31 31 31 31 31 31 30 28 26 25 25 24 24 24 25 24 25 25 25 25 25 25 26 27 26 26 27 28 29
15 15 16 17 18 19 20 20 21 21 22 22 23 23 24 24 24 25 25 26 26 26 26 26 27 27 28 29 30 30 31 31 31 31 31 31 31 31 31 31 31 31 31 31 31 30 29 28 26 25 25 25 24 24 24 24 25 26 27 28 28 27 27 28 29 29 29 30 30
15 16 17 18 19 19 20 21 21 22 22 23 23 24 24 24 24 25 25 26 26 26 27 27 28 28 29 29 30 31 31 31 31 31 31 31 31 32 32 32 31 32 32 31 30 30 29 28 27 26 25 25 25 26 26 26 27 28 29 29 30 29 29 30 30 30 31 31 31
17 17 18 19 20 20 21 22 22 22 23 24 24 24 24 24 25 25 25 26 27 27 28 28 29 29 29 30 30 31 31 31 31 31 32 32 32 32 33 32 32 33 33 32 31 30 29 28 27 27 27 27 27 28 28 28 29 30 30 29 29 29 30 31 30 31 31 32 32
18 18 19 20 21 21 22 23 23 23 24 24 25 25 25 25 25 26 26 26 27 28 29 29 29 29 30 30 30 31 31 31 31 31 32 32 33 33 33 33 33 33 33 33 31 30 29 28 28 28 29 29 28 29 29 29 29 30 30 30 30 31 32 33 32 31 31 32 33
19 19 20 21 22 22 23 24 24 25 25 25 25 26 26 26 26 26 27 27 28 29 29 29 29 30 30 30 30 30 30 31 31 31 32 33 34 34 34 34 34 33 33 33 31 29 28 28 29 30 30 31 30 29 30 30 31 31 31 32 32 32 32 33 33 32 31 31 32
19 20 21 22 22 23 24 25 25 25 26 26 26 26 26 27 27 27 27 28 28 29 29 30 29 29 30 30 30 30 30 31 31 32 33 33 34 34 34 34 33 33 33 32 31 30 29 30 30 31 32 33 32 31 31 31 32 32 32 32 32 33 33 33 33 33 33 33 33
20 21 22 23 24 24 25 26 26 26 26 26 26 27 27 27 27 27 27 28 28 29 30 30 30 29 29 29 30 31 31 31 32 33 33 34 33 33 34 34 33 33 32 32 32 31 31 32 32 33 33 34 34 34 33 33 33 32 32 32 33 33 33 34 34 34 34 34 34
21 22 23 24 25 25 26 26 26 26 26 27 27 27 28 28 28 27 27 28 29 29 29 29 30 30 30 30 30 31 32 32 32 32 33 33 33 33 33 33 34 34 33 33 33 33 33 33 34 34 34 34 35 35 34 34 34 33 32 33 33 34 34 34 34 34 34 35 36
22 23 24 25 26 26 26 26 26 26 27 27 28 28 28 28 28 28 28 28 29 29 29 29 30 31 31 31 31 31 31 32 31 32 32 33 33 34 34 34 34 34 34 34 34 34 34 34 34 34 35 35 35 35 35 35 35 34 33 33 33 34 34 34 34 34 34 35 35
23 24 25 26 27 27 27 27 27 27 27 28 28 28 28 28 29 28 28 28 29 29 30 31 31 31 32 32 32 31 31 31 32 32 32 33 34 34 35 35 35 35 35 35 35 36 36 36 35 35 35 35 35 35 35 35 35 35 34 34 34 34 34 34 33 33 34 34 34
25 26 27 27 27 27 27 27 28 28 28 29 29 29 29 29 29 29 30 30 30 31 32 32 32 32 32 33 33 32 31 31 32 33 33 34 35 35 36 36 36 36 36 36 36 36 36 36 36 36 35 35 35 36 35 34 35 35 34 34 34 34 34 34 34 34 34 35 35
26 27 27 27 27 27 27 28 28 28 29 29 29 29 30 30 30 30 31 31 31 31 32 33 33 32 32 33 33 33 32 32 33 34 35 35 35 36 36 37 37 37 36 36 36 37 37 36 36 36 36 35 35 35 35 34 35 35 35 35 35 35 35 35 36 35 35 36 36
27 27 27 27 27 27 28 28 28 29 29 29 29 30 30 30 30 31 31 32 32 31 31 32 33 33 33 33 34 34 34 33 34 35 35 36 36 36 36 37 37 37 37 37 37 37 36 36 36 36 36 35 35 35 35 35 35 35 36 36 36 36 37 37 37 37 36 36 36
27 27 27 27 27 27 28 28 29 29 29 29 30 30 30 30 30 31 31 32 32 32 32 32 32 33 33 34 34 34 35 34 34 35 36 36 36 37 37 37 37 38 38 37 36 36 36 36 36 36 36 35 35 35 35 35 35 36 37 37 37 37 37 37 37 37 37 37 37
27 27 27 27 27 28 28 28 29 29 29 30 30 30 30 30 31 31 32 32 32 32 32 32 32 33 33 34 34 35 35 35 35 35 36 36 37 37 37 36 36 37 37 37 37 36 36 36 36 36 35 35 35 36 36 35 35 36 37 37 38 38 38 38 37 36 36 36 36
27 27 27 27 27 28 28 28 29 29 29 30 30 30 30 30 31 31 32 32 32 32 32 32 33 33 34 34 35 35 36 36 36 36 36 36 37 37 37 36 36 36 36 37 36 36 35 35 35 35 35 34 35 35 36 36 36 36 36 37 38 39 39 38 37 36 35 34 34
27 27 27 27 28 28 28 29 29 29 29 29 30 30 30 31 31 32 32 32 32 33 33 33 33 34 34 35 35 35 35 36 36 36 36 36 36 36 36 36 35 35 35 35 34 33 33 33 33 33 32 32 33 34 34 35 34 35 35 36 36 36 36 35 35 35 35 34 34
27 27 28 28 28 28 28 28 29 29 29 29 29 30 30 31 31 32 32 33 33 33 34 34 35 35 35 34 35 34 34 35 35 35 35 36 36 36 36 35 35 35 34 34 34 34 35 35 34 33 32 32 33 34 35 36 35 35 36 35 34 33 33 34 35 36 37 36 37
27 27 28 28 28 28 28 28 28 29 29 29 30 30 30 31 32 32 32 33 34 34 34 35 35 35 34 34 34 34 34 34 34 34 34 35 36 36 36 35 35 35 34 34 35 36 36 37 37 37 36 36 35 35 35 34 35 35 35 34 33 33 34 35 37 39 40 40 40
27 27 28 28 28 28 28 28 28 29 29 29 30 30 31 32 32 32 33 34 34 35 35 35 34 34 34 33 34 34 34 34 34 35 35 35 36 36 36 36 35 35 35 35 36 37 37 38 39 39 39 38 38 36 35 34 33 33 32 32 33 34 36 37 38 40 41 41 40
27 27 28 28 28 28 28 28 28 28 29 30 30 31 32 32 33 33 34 34 35 35 35 34 34 33 33 33 33 34 35 35 35 36 36 35 36 36 37 36 36 35 36 36 37 38 39 39 39 39 39 38 38 37 36 35 34 33 32 33 36 37 36 37 38 40 40 38 37
27 27 27 27 28 28 28 28 28 29 29 30 31 32 32 33 33 34 34 34 35 35 34 34 34 33 33 33 34 35 36 36 36 35 35 35 36 36 36 37 37 37 37 38 38 38 39 39 39 39 39 39 38 36 35 34 34 35 36 37 37 37 36 37 38 37 35 35 34
26 26 27 27 28 28 28 28 29 30 30 31 31 32 33 33 34 34 34 34 35 34 34 34 34 34 35 35 35 35 35 35 35 35 35 35 36 36 36 36 36 37 38 38 38 38 39 39 39 40 40 40 39 38 36 35 34 35 36 37 38 38 38 36 35 34 33 33 34
26 26 26 27 27 28 28 29 30 31 31 32 32 33 33 34 34 34 34 34 35 35 35 35 35 35 36 36 35 35 35 35 35 35 35 35 36 36 36 36 36 37 37 38 38 39 40 40 41 41 41 41 40 38 37 36 36 35 35 35 37 37 36 35 33 33 33 33 34
25 26 26 27 28 28 29 30 31 31 32 32 33 33 34 34 34 34 34 34 34 34 35 35 35 35 35 36 35 35 34 35 35 35 34 34 34 35 36 36 38 38 38 38 39 40 41 41 42 42 42 42 40 40 39 38 37 36 36 36 36 37 36 35 35 35 35 36 36
25 26 26 27 28 29 30 31 31 32 32 33 33 33 34 34 35 35 35 34 33 33 34 34 34 34 35 35 35 35 35 34 34 34 33 33 33 35 37 37 38 39 39 39 40 41 42 42 42 42 42 42 41 40 39 38 37 36 35 35 36 36 37 37 37 37 38 38 38
25 26 27 28 29 30 31 31 32 32 32 33 34 34 34 34 34 35 35 35 34 33 33 34 33 33 33 34 34 34 34 34 34 34 34 34 34 35 37 37 38 39 40 40 41 42 42 42 42 42 42 42 41 39 38 37 36 35 35 35 36 37 37 37 38 38 38 38 38
26 27 28 29 30 30 31 32 32 32 32 33 34 34 34 34 34 34 35 35 35 34 34 34 34 33 33 32 32 33 33 35 35 35 35 35 36 37 38 39 40 40 41 41 42 42 42 42 42 42 42 41 39 38 36 35 34 34 34 35 36 37 37 37 37 37 38 38 38
26 27 28 29 30 31 31 32 32 32 32 33 33 34 35 34 35 35 35 34 34 34 34 34 34 33 33 33 33 33 34 34 35 36 37 37 37 37 38 40 40 41 41 41 41 41 41 41 41 42 41 40 37 35 34 33 32 32 33 34 35 36 37 37 37 37 37 37 37
27 27 28 29 30 31 31 32 32 32 32 33 33 34 34 35 35 35 35 33 33 33 33 33 32 32 33 33 34 34 34 34 35 36 37 37 36 37 38 39 40 41 41 41 40 40 41 41 41 41 40 38 36 34 33 32 31 31 32 33 34 35 36 35 36 36 36 36 36
28 28 28 29 30 31 31 31 31 32 33 33 34 34 34 34 34 34 34 32 31 31 32 33 33 33 33 34 35 36 36 36 35 35 36 36 36 36 36 37 38 39 40 40 40 40 40 41 41 41 40 37 36 35 33 31 30 30 31 32 33 34 34 34 34 34 35 36 36
28 28 28 29 30 31 31 31 31 32 32 33 34 34 34 34 33 33 32 30 29 29 30 32 34 35 35 36 35 36 37 37 36 35 35 35 36 37 37 37 38 39 39 40 40 40 41 41 41 41 40 38 36 35 33 31 30 31 31 31 31 32 33 33 33 33 34 36 37
28 28 28 29 29 30 31 31 32 32 32 32 33 34 34 33 32 32 31 30 29 30 32 33 35 36 37 36 36 36 36 36 35 34 34 35 36 37 37 37 38 39 40 41 41 41 41 41 40 40 39 37 36 34 32 30 29 30 30 30 30 30 31 32 32 32 33 36 37
28 28 28 29 29 29 30 31 32 32 32 32 32 32 32 31 31 31 31 30 31 32 34 34 35 36 36 36 35 35 35 35 35 35 35 35 36 37 36 36 37 39 41 41 41 40 40 40 39 39 38 37 36 34 32 30 28 28 29 30 30 29 29 30 31 31 32 33 35
Wind_Direction
312 310 310 311 312 314 316 318 320 323 325 326 325 323 321 319 316 313 312 311 309 308 308 307 306 307 308 309 309 309 309 309 309 309 308 307 307 306 306 306 306 305 305 305 305 304 303 303 301 299 296 293 291 289 287 285 284 283 282 281 280 279 278 276 275 274 272 270 268
308 308 308 309 311 313 316 317 320 323 324 325 325 323 321 319 316 313 312 311 310 309 308 308 308 308 309 309 309 309 309 309 309 308 307 306 306 306 305 305 305 305 304 304 304 303 302 301 300 297 295 292 290 287 286 284 283 282 281 280 279 279 278 277 276 275 274 272 269
306 307 308 310 311 314 316 318 320 322 322 323 322 322 320 318 316 313 312 311 311 310 309 308 308 309 309 309 310 310 309 309 308 307 306 305 305 305 305 305 304 304 304 303 302 302 301 300 299 297 293 291 288 286 285 284 282 281 279 279 279 278 277 277 276 275 274 272 270
306 307 309 311 313 315 317 318 320 320 321 320 320 319 318 317 316 314 312 312 311 310 308 308 309 309 309 309 309 309 309 308 307 306 304 304 304 304 304 304 304 303 303 302 302 301 301 300 299 295 292 289 286 284 283 282 281 279 278 277 278 277 276 275 275 275 273 272 271
308 310 312 314 315 316 318 319 320 320 319 319 318 317 316 316 315 314 313 311 310 309 309 310 309 309 309 309 308 308 308 307 306 304 304 303 303 304 304 304 303 302 302 302 301 300 300 300 298 294 290 288 285 282 281 280 280 278 277 276 275 275 275 275 275 274 273 272 271
311 313 315 316 318 318 319 320 320 319 319 318 317 316 315 315 315 314 313 311 310 310 311 310 309 308 308 307 307 306 306 305 305 304 303 303 303 303 303 302 302 301 301 301 300 300 299 298 296 293 290 287 284 282 280 280 279 278 276 276 275 275 275 275 275 275 274 273 272
314 316 317 319 320 320 320 320 320 319 318 318 316 315 315 315 314 313 313 312 312 311 310 309 307 306 306 306 305 305 305 304 304 304 303 302 302 302 301 301 301 300 299 299 299 298 297 296 293 290 288 287 284 282 281 280 279 278 276 276 275 275 275 275 275 275 275 274 273
316 318 319 320 321 322 322 322 321 320 319 317 316 315 315 315 314 314 314 313 312 310 309 307 306 305 305 305 304 304 304 303 303 303 302 301 301 301 300 300 299 298 297 297 296 295 294 293 290 288 286 285 283 282 281 280 279 278 277 276 277 276 275 274 275 274 274 274 273
318 320 321 322 323 323 323 323 322 321 319 317 316 316 316 315 315 314 314 312 310 309 307 306 305 305 305 304 303 303 302 302 302 301 301 300 300 299 298 297 296 295 295 294 293 293 292 290 288 285 284 282 282 281 281 281 281 279 278 277 277 276 275 273 273 273 273 273 272
320 321 322 322 324 324 324 324 323 322 320 318 317 317 317 316 316 315 313 311 310 308 306 305 305 305 304 303 302 301 301 300 300 300 299 299 298 297 296 295 294 293 293 292 292 291 290 289 286 283 282 281 280 281 282 282 281 280 280 278 277 277 276 275 273 273 273 272 271
320 321 322 323 324 325 325 324 323 322 320 318 317 317 317 316 316 315 313 311 309 307 306 306 305 304 303 301 301 300 300 299 298 298 297 296 295 294 293 292 291 291 291 290 290 290 288 287 285 283 282 281 281 282 282 282 282 281 281 279 279 278 278 277 276 274 272 271 271
320 321 322 324 325 325 325 324 322 321 319 318 317 317 316 316 315 314 313 310 308 306 306 305 304 303 301 300 299 298 298 297 296 295 294 293 293 292 291 290 290 289 289 289 289 288 286 285 284 283 283 282 282 282 282 283 282 282 281 281 280 279 278 277 277 275 274 272 272
320 321 323 324 325 325 324 323 322 320 319 317 316 316 315 315 314 313 311 308 306 305 304 304 302 301 299 298 297 297 296 295 295 293 292 291 291 290 289 289 289 289 288 288 288 287 286 285 284 283 283 283 282 282 282 282 282 281 281 280 280 279 278 278 278 277 276 275 273
320 321 323 324 325 325 324 322 321 319 317 316 315 315 314 313 312 310 308 305 304 303 302 302 300 298 297 296 296 296 295 294 293 292 291 290 289 289 288 288 289 288 288 288 288 287 285 284 284 283 283 283 282 282 282 281 281 280 280 279 279 279 278 278 278 278 277 276 274
320 321 323 324 324 324 323 321 319 317 316 314 314 314 313 311 309 308 306 303 302 301 300 299 298 297 296 295 295 295 294 293 291 290 290 290 289 288 288 288 288 288 288 287 287 286 285 284 283 283 283 282 282 282 281 281 280 279 278 277 277 277 277 277 278 277 276 275 275
321 322 324 324 323 323 321 320 318 315 314 312 312 312 311 309 307 306 304 302 300 299 297 296 296 296 296 296 295 294 293 292 291 290 290 290 290 289 288 288 288 288 288 287 287 286 285 284 283 283 282 282 282 281 280 280 279 278 277 276 276 276 276 276 277 276 276 276 274
322 323 324 323 322 321 319 318 316 314 312 312 311 310 309 307 306 304 302 300 299 298 297 296 296 296 296 296 295 294 293 293 292 291 290 290 290 289 289 288 287 287 287 287 287 286 285 284 283 283 282 281 281 280 279 278 277 277 276 275 275 275 276 276 276 276 276 276 275
323 323 323 322 321 319 318 316 314 313 311 310 310 308 307 306 304 303 301 300 299 298 298 298 297 296 296 296 296 295 294 293 292 291 290 290 289 289 289 288 287 287 287 287 286 285 285 284 284 283 282 281 280 279 278 276 276 275 275 275 275 275 275 276 276 276 276 276 276
323 323 322 321 319 317 316 314 313 311 310 309 308 307 306 305 304 303 302 301 300 299 299 299 298 297 296 296 295 295 294 293 292 291 291 290 289 289 288 288 288 287 287 286 286 285 284 284 284 283 282 281 280 278 277 276 275 274 274 274 275 275 275 275 275 275 274 274 274
322 321 320 319 317 316 314 313 311 310 309 308 307 306 305 304 303 302 301 301 301 301 300 299 298 297 297 296 295 295 294 293 293 292 291 291 290 289 288 288 288 287 287 286 286 285 284 284 283 283 282 281 279 277 276 275 274 274 274 274 274 274 274 274 274 273 272 272 272
320 319 318 317 315 314 312 311 310 309 308 307 306 305 304 304 303 302 301 302 302 302 300 299 298 298 297 297 296 295 295 294 293 292 291 291 290 289 288 288 288 287 287 286 286 285 284 284 284 283 282 280 279 277 276 275 274 274 273 273 273 272 272 272 272 271 270 270 270
319 318 317 316 314 313 312 310 309 308 306 306 305 305 304 304 303 303 303 303 303 302 301 299 299 298 297 297 296 295 295 294 293 292 291 291 290 289 289 288 287 287 287 286 286 285 285 285 284 283 281 280 278 277 276 275 273 272 272 271 271 271 271 270 269 268 268 268 268
318 317 316 315 313 312 311 309 308 307 306 305 305 305 304 304 304 304 305 304 303 302 301 300 299 298 298 297 296 295 295 294 293 292 291 290 290 290 289 289 288 287 287 286 286 285 285 285 284 283 280 278 276 275 274 274 273 271 269 268 269 270 270 269 269 268 267 267 268
317 316 315 314 313 312 310 309 308 307 306 305 305 305 305 305 306 306 306 305 304 303 302 301 300 299 298 297 296 296 295 294 293 293 292 291 290 290 290 290 289 288 287 287 285 285 284 284 284 283 280 277 276 274 273 272 271 269 268 268 267 267 268 268 270 270 271 270 270
317 316 315 314 312 311 310 308 307 306 306 306 306 306 306 306 307 307 306 305 304 303 302 301 301 300 299 298 297 296 295 294 293 293 293 292 292 291 291 290 290 289 288 287 285 285 285 285 284 283 281 279 278 276 275 273 270 269 268 267 266 267 269 271 274 275 275 274 273
316 315 314 313 312 310 309 308 307 306 306 307 307 307 307 308 308 307 306 305 304 303 303 302 301 301 300 299 298 296 295 294 294 293 293 293 293 292 291 290 289 289 288 287 287 286 286 285 284 283 282 281 280 278 276 274 272 270 270 269 270 272 275 277 278 278 277 275 272
316 314 313 312 311 309 308 307 307 307 307 308 308 308 308 308 308 307 306 304 304 303 303 302 301 301 300 299 298 297 296 295 295 294 294 293 292 292 291 290 289 288 287 287 287 287 287 286 285 284 283 282 282 281 280 279 279 278 277 277 278 279 279 279 278 276 274 273 271
315 313 312 311 310 309 308 308 308 308 308 309 309 309 309 308 307 306 305 304 303 303 303 303 302 301 301 299 298 297 296 296 295 295 294 293 292 291 291 290 289 287 287 287 287 288 287 287 287 286 286 285 285 286 286 286 286 285 284 283 282 280 278 275 274 273 271 269 269
314 313 312 310 309 308 308 308 308 309 309 310 309 309 309 308 306 305 304 304 303 303 303 303 303 302 300 298 298 297 297 296 296 295 294 293 292 291 290 289 288 288 288 288 289 289 289 289 288 288 288 288 288 289 288 287 286 285 284 282 280 277 274 271 269 268 267 267 268
313 312 311 309 308 308 308 309 309 310 310 310 309 309 308 307 305 305 304 304 303 303 302 302 302 300 299 298 297 297 296 296 296 295 294 293 291 290 289 288 287 288 289 290 290 290 290 290 290 290 290 289 289 288 286 284 282 280 279 278 276 274 271 268 267 266 266 268 271
313 311 310 309 308 308 308 309 310 310 310 310 309 308 307 306 304 304 303 303 303 302 302 302 300 299 298 298 298 297 296 296 295 294 293 292 292 290 289 288 288 289 290 291 292 291 291 291 291 290 290 289 288 286 284 282 279 277 275 274 274 273 272 271 270 271 271 272 273
312 311 310 309 308 308 309 310 310 310 310 309 308 307 306 305 303 303 303 303 303 302 302 302 301 300 299 299 299 297 296 295 295 294 292 290 289 289 290 290 291 292 292 293 292 292 292 291 291 290 290 289 288 286 284 282 280 278 276 275 275 275 275 275 276 276 276 275 274
311 310 310 309 309 309 310 310 310 310 309 309 307 306 305 304 303 303 304 304 303 303 302 301 300 300 299 299 299 298 296 295 294 293 292 291 290 291 292 292 292 293 293 293 293 292 292 292 291 291 291 290 289 287 285 284 282 280 278 277 276 276 276 276 276 275 274 273 272
311 311 310 310 310 310 310 311 311 310 309 308 307 305 305 304 304 304 304 304 304 302 301 300 299 298 297 298 296 296 296 295 295 294 293 293 292 292 292 292 292 293 293 294 293 293 293 292 292 292 291 291 289 288 286 284 282 280 278 277 277 276 275 274 273 272 271 270 269
312 312 311 311 311 311 311 310 310 310 308 307 306 305 305 304 303 303 304 304 304 303 301 300 299 298 297 296 295 295 295 297 296 295 295 294 293 293 293 292 292 293 294 294 294 294 293 293 292 292 291 291 290 288 286 284 282 280 278 277 276 276 275 274 272 271 270 269 267
312 312 312 311 311 311 311 310 310 309 307 306 305 305 305 304 304 304 304 304 303 302 301 300 300 299 299 298 297 297 297 297 296 296 295 295 293 293 293 293 293 294 295 295 295 294 294 293 293 292 292 291 290 288 286 284 282 280 279 277 276 276 275 274 273 271 270 268 266
313 313 312 312 311 310 310 310 309 308 306 305 305 304 304 304 304 304 304 304 303 301 301 301 300 300 300 300 299 298 297 296 296 295 295 295 294 293 293 293 293 294 295 295 295 295 294 294 293 293 293 292 291 289 287 285 283 281 279 277 276 275 275 274 272 271 269 267 266
313 313 312 311 310 310 309 309 307 306 305 305 304 304 304 304 303 304 305 304 302 301 301 301 301 301 301 300 299 299 298 297 296 295 294 294 294 294 294 294 293 294 295 296 296 295 295 294 294 294 293 292 291 289 287 285 282 280 278 278 277 276 274 273 272 270 269 267 266
313 313 312 311 310 309 308 307 306 305 304 304 304 304 304 304 303 303 304 303 301 301 301 302 302 302 301 301 300 299 298 297 296 295 295 294 295 296 296 295 294 294 295 295 296 295 295 295 294 294 293 292 290 289 286 284 281 279 278 277 276 275 274 273 271 269 268 267 267
313 312 311 310 309 308 307 306 305 304 304 303 303 304 304 304 303 304 304 304 303 303 302 302 301 301 301 301 300 299 298 298 297 297 296 296 296 297 297 295 294 294 295 295 295 295 294 294 294 294 293 292 290 288 285 283 280 278 277 277 276 275 275 274 272 269 268 267 267
313 312 311 310 308 307 306 305 305 304 304 303 303 303 304 304 305 305 305 305 305 304 303 301 300 300 300 300 300 298 298 298 299 298 298 297 297 297 296 294 293 293 294 294 295 294 294 294 294 294 293 292 290 288 286 283 280 278 277 278 277 277 276 275 274 272 269 267 266